Terug naar catalogus

ARIANE 44L R/B

ActiefGTO
NORAD 21815·ROCKET BODY·🇫🇷 France

Gelanceerd Dec 16, 1991 vanaf Guiana Space Centre

Loading…

TLE

VerouderendSource: Space-Track

Epoch: Sep 14, 2026, 07:26 UTC

1 21815U 91084C   26257.30985193  .00000093  00000-0  30149-3 0  9991
2 21815   3.6852 122.6011 7167744 326.1636   4.1597  2.34826579290990

Volg ARIANE 44L R/B in realtime met AllMySat

Download on the App Store